Hovedside
METAR-TAF:

METAR-TAF

Lufthavner :

Pajala, Sverige

Pajala lufthavn

breddegrad: 67-14-44N, lengdegrad: 023-04-08E, høyde over havet: 165 m

Gjeldene værobservasjon

Denne rapporten ble laget for 33 minutter siden, klokken 13:20 UTC
Vind 6 kt fra Vest-nordvest
Temperatur -20°C
Luftfuktighet 77%
Trykk 1045 hPa
Sikt 10 km eller mer

METAR: ESUP 251320Z AUTO 29006KT 9999 NCD M20/M23 Q1045

Tid: 14:53 (13:53 UTC)


TAF: fraværende

Værobservasjoner og værvarsel for over 4000 flyplasser (METAR- og TAF-rapporter).

Tilgjengelige stasjoner er representert av de røde og gule prikkene på kartet.

Hold musepekeren over prikken for å se navnet på stasjonen.

Klikk så for å se værobservasjoner og -varsler.

For å forandre kartet kan du klikke på den grønne knappen med svart kryss for å zoome inn, på den grønne knappen med strek for å zoome ut, eller på de grønne pilene for å se tilstøtende kart.


METAR-TAF: